[Iaude] MPEC P42: 2024 OY2 [a=0.87,e=0.25,i=2.1,H=25.1]

mpec at cfa.harvard.edu mpec at cfa.harvard.edu
Sat Aug 3 04:18:04 EDT 2024


M.P.E.C. 2024-P42                                Issued 2024 August 3, 08:16 UT

     The Minor Planet Electronic Circulars contain information on unusual
         minor planets, routine data on comets and natural satellites,
         and occasional editorial announcements.  They are published
    on behalf of Division F of the International Astronomical Union by the
          Minor Planet Center, Smithsonian Astrophysical Observatory,
                          Cambridge, MA 02138, U.S.A.
			  
             Prepared using the Tamkin Foundation Computer Network

                              MPC at CFA.HARVARD.EDU
            URL https://www.minorplanetcenter.net/    ISSN 1523-6714

                                    2024 OY2                                    


Observations:
     K24O02Y* C2024 07 30.54209800 03 05.433-01 13 54.02         20.87wXEP042F51
     K24O02Y  C2024 07 30.56453900 03 05.672-01 13 03.07         20.99wXEP042F51
     K24O02Y  C2024 07 30.57576900 03 05.772-01 12 37.66         20.85wXEP042F51
     K24O02Y 3C2024 07 31.50101100 04 13.073-00 35 54.94         20.39GVEP042T14
     K24O02Y 3C2024 07 31.50199000 04 13.089-00 35 52.45         20.71GVEP042T14
     K24O02Y 3C2024 07 31.50297300 04 13.103-00 35 50.06         21.04GVEP042T14
     K24O02Y KC2024 08 02.08363200 06 05.002+00 34 21.14         20.4 GVEP042J95
     K24O02Y KC2024 08 02.08952000 06 05.218+00 34 38.10         20.5 GVEP042J95
     K24O02Y KC2024 08 02.09807000 06 05.501+00 35 03.23         20.0 GVEP042J95
     K24O02Y KC2024 08 03.31200700 07 41.60 +01 39 50.5                VEP042H21
     K24O02Y KC2024 08 03.32319200 07 41.88 +01 40 28.6          20.1 GVEP042H21
     K24O02Y KC2024 08 03.32599000 07 41.96 +01 40 38.4          20.5 GVEP042H21

Observer details:
F51 Pan-STARRS 1, Haleakala.  Observers J. Herman, T. Lowe, P. Minguez, A.
    Schultz, I. Smith.  Measurers K. Chambers, T. de Boer, J. Fairlamb, H.
    Gao, M. Huber, C.-C. Lin, E. Magnier, Y. Ramanjooloo, R. Wainscoat, R.
    Weryk.  1.8-m Ritchey-Chretien + CCD.
H21 Astronomical Research Observatory, Westfield.  Observer R. Holmes.
    Measurers T. Linder, R. Holmes.  0.76-m f/3.0 astrograph + CCD.
J95 Great Shefford.  Observer P. Birtwhistle.  0.41-m f/6.3 Schmidt-Cassegrain
    + CCD.
T14 Canada-France-Hawaii Telescope, Maunakea.  Observers R. Wainscoat, J.
    Silva, V. Khatu.  Measurers R. Weryk, R. Wainscoat.  3.6-m f/4.1 reflector
    + CCD.

Orbital elements:
2024 OY2                                                 Earth MOID = 0.0080 AU
Epoch 2024 Oct. 17.0 TT = JDT 2460600.5                 MPC                     
M 312.14840              (2000.0)            P               Q                  
n   1.22444620     Peri.  156.00901     -0.29658350     -0.95462385             
a   0.8653190      Node   311.23164     +0.87028244     -0.25850140             
e   0.2469146      Incl.    2.06102     +0.39325145     -0.14788618             
P   0.80           H   25.17          G   0.15           U   7                  
Residuals in seconds of arc
240730 F51  0.1-  0.1-    240731 T14  0.1-  0.0     240802 J95  0.5+  0.4-
240730 F51  0.1+  0.1+    240731 T14  0.1-  0.0     240803 H21  0.1-  0.2+
240730 F51  0.0   0.0     240802 J95  0.1+  0.2+    240803 H21  0.2-  0.1-
240731 T14  0.1-  0.0     240802 J95  0.4+  0.3-    240803 H21  0.0   0.0

Ephemeris:
2024 OY2                 a,e,i = 0.87, 0.25, 2                   q = 0.6517
Date    TT    R. A. (2000) Decl.     Delta      r    Elong.  Phase     V
2024 07 04    23 34 33.0 -09 29 41   0.1483  1.0803   111.7    61.0    23.4
...
2024 07 19    23 51 05.0 -06 02 41   0.09824 1.0699   120.8    54.6    22.3
...
2024 07 27    23 59 15.1 -03 07 53   0.07152 1.0587   125.5    51.3    21.5
...
2024 08 02    00 05 56.0 +00 32 24   0.05173 1.0477   128.3    49.5    20.7
2024 08 03    00 07 12.6 +01 24 12   0.04847 1.0457   128.6    49.3    20.5
2024 08 04    00 08 34.3 +02 22 46   0.04523 1.0436   128.9    49.2    20.4
...
2024 08 10    00 21 08.3 +12 51 11   0.02640 1.0298   126.9    51.9    19.3
...
2024 08 18    06 26 22.4 +75 17 06   0.01125 1.0081    67.9   111.5    19.7
...
2024 09 02    11 40 47.4 +21 07 13   0.05407 0.9580    18.9   160.1    29.7

A. U. Tomatic                (C) Copyright 2024 MPC           M.P.E.C. 2024-P42





More information about the Iaude mailing list